TimeCDT,TemperatureF,Dew PointF,Humidity,Sea Level PressureIn,VisibilityMPH,Wind Direction,Wind SpeedMPH,Gust SpeedMPH,PrecipitationIn,Events,Conditions,WindDirDegrees,DateUTC
12:58 AM,63.7,59.2,85,29.93,10.0,SSE,3.5,-,N/A,,Clear,160,2013-04-11 05:58:00
1:58 AM,62.8,58.8,87,29.91,10.0,SSE,2.3,-,N/A,,Clear,150,2013-04-11 06:58:00
2:58 AM,62.4,58.5,87,29.89,10.0,ESE,3.5,-,N/A,,Partly Cloudy,120,2013-04-11 07:58:00
3:38 AM,60.8,59.0,94,29.89,10.0,SE,3.5,-,N/A,,Mostly Cloudy,130,2013-04-11 08:38:00
3:58 AM,62.6,58.8,87,29.88,10.0,SE,4.6,-,N/A,,Overcast,140,2013-04-11 08:58:00
4:43 AM,62.6,59.0,88,29.88,10.0,ESE,4.6,-,N/A,,Scattered Clouds,110,2013-04-11 09:43:00
4:58 AM,63.0,58.6,86,29.88,5.0,ESE,3.5,-,N/A,,Haze,110,2013-04-11 09:58:00
5:08 AM,62.6,59.0,88,29.88,5.0,East,3.5,-,N/A,,Haze,100,2013-04-11 10:08:00
5:13 AM,62.6,59.0,88,29.88,8.0,ESE,3.5,-,N/A,,Mostly Cloudy,120,2013-04-11 10:13:00
5:43 AM,64.4,60.8,88,29.88,3.0,East,5.8,-,N/A,,Haze,100,2013-04-11 10:43:00
5:58 AM,63.7,60.1,88,29.89,4.0,ESE,5.8,-,N/A,,Overcast,110,2013-04-11 10:58:00
6:13 AM,64.4,60.8,88,29.89,4.0,ESE,9.2,-,N/A,,Overcast,110,2013-04-11 11:13:00
6:20 AM,64.4,60.8,88,29.89,4.0,ESE,8.1,-,N/A,,Overcast,110,2013-04-11 11:20:00
6:58 AM,65.7,63.9,94,29.90,8.0,SE,8.1,-,N/A,,Overcast,140,2013-04-11 11:58:00
7:33 AM,68.0,66.2,94,29.90,10.0,SSE,10.4,-,N/A,,Overcast,150,2013-04-11 12:33:00
7:43 AM,68.0,66.2,94,29.90,10.0,SE,10.4,-,N/A,,Overcast,140,2013-04-11 12:43:00
7:58 AM,68.9,65.8,90,29.90,10.0,SE,9.2,-,N/A,,Overcast,140,2013-04-11 12:58:00
8:23 AM,69.8,66.2,88,29.89,10.0,SE,15.0,19.6,N/A,,Mostly Cloudy,140,2013-04-11 13:23:00
8:33 AM,69.8,66.2,88,29.89,10.0,SE,10.4,-,N/A,,Mostly Cloudy,130,2013-04-11 13:33:00
8:58 AM,72.5,67.1,83,29.90,10.0,SE,10.4,-,N/A,,Mostly Cloudy,140,2013-04-11 13:58:00
9:03 AM,73.4,68.0,83,29.90,10.0,SSE,11.5,-,N/A,,Mostly Cloudy,160,2013-04-11 14:03:00
9:23 AM,73.4,68.0,83,29.90,10.0,SSE,12.7,-,N/A,,Mostly Cloudy,150,2013-04-11 14:23:00
9:28 AM,75.2,68.0,78,29.90,10.0,SSE,11.5,-,N/A,,Mostly Cloudy,160,2013-04-11 14:28:00
9:43 AM,77.0,68.0,74,29.90,10.0,SSE,13.8,-,N/A,,Mostly Cloudy,160,2013-04-11 14:43:00
9:48 AM,77.0,68.0,74,29.90,10.0,SSE,11.5,-,N/A,,Mostly Cloudy,160,2013-04-11 14:48:00
9:58 AM,76.3,68.0,75,29.90,10.0,SSE,9.2,20.7,N/A,,Mostly Cloudy,150,2013-04-11 14:58:00
10:58 AM,76.5,68.0,75,29.90,10.0,SSE,12.7,-,N/A,,Overcast,150,2013-04-11 15:58:00
11:43 AM,80.6,68.0,65,29.88,10.0,SSE,15.0,19.6,N/A,,Overcast,160,2013-04-11 16:43:00
11:48 AM,78.8,68.0,69,29.88,10.0,SSE,10.4,19.6,N/A,,Mostly Cloudy,160,2013-04-11 16:48:00
11:58 AM,78.8,69.1,72,29.87,10.0,SE,8.1,-,N/A,,Mostly Cloudy,140,2013-04-11 16:58:00
12:13 PM,78.8,69.8,74,29.86,9.0,South,10.4,-,N/A,Rain,Light Rain,170,2013-04-11 17:13:00
12:16 PM,78.8,69.8,74,29.86,4.0,South,9.2,-,N/A,Rain,Light Rain,180,2013-04-11 17:16:00
12:31 PM,75.2,69.8,83,29.85,2.0,South,13.8,-,N/A,Rain,Light Rain,190,2013-04-11 17:31:00
12:41 PM,75.2,71.6,89,29.84,9.0,South,6.9,-,N/A,,Mostly Cloudy,180,2013-04-11 17:41:00
12:46 PM,77.0,71.6,83,29.84,10.0,South,5.8,-,N/A,,Mostly Cloudy,190,2013-04-11 17:46:00
12:50 PM,77.0,71.6,83,29.84,10.0,SSW,5.8,-,N/A,Rain,Light Rain,210,2013-04-11 17:50:00
12:58 PM,75.9,71.8,87,29.84,3.0,South,9.2,-,0.26,Rain,Rain,190,2013-04-11 17:58:00
1:03 PM,75.2,69.8,83,29.83,3.0,South,11.5,-,N/A,Rain,Light Rain,180,2013-04-11 18:03:00
1:05 PM,75.2,71.6,89,29.83,9.0,South,10.4,-,N/A,,Mostly Cloudy,170,2013-04-11 18:05:00
1:58 PM,80.6,71.4,73,29.79,10.0,South,16.1,20.7,0.00,,Mostly Cloudy,170,2013-04-11 18:58:00
2:58 PM,82.4,70.2,66,29.76,10.0,South,17.3,25.3,N/A,,Mostly Cloudy,170,2013-04-11 19:58:00
3:14 PM,80.6,69.8,70,29.76,10.0,South,18.4,25.3,N/A,,Light Drizzle,180,2013-04-11 20:14:00
3:23 PM,80.6,68.0,65,29.76,10.0,South,19.6,29.9,N/A,,Mostly Cloudy,170,2013-04-11 20:23:00
3:41 PM,78.8,69.8,74,29.75,10.0,SSE,20.7,25.3,N/A,,Light Drizzle,160,2013-04-11 20:41:00
3:51 PM,78.8,69.8,74,29.74,10.0,South,15.0,24.2,N/A,,Mostly Cloudy,170,2013-04-11 20:51:00
3:58 PM,78.4,70.0,75,29.73,10.0,South,16.1,20.7,0.00,,Mostly Cloudy,180,2013-04-11 20:58:00
4:28 PM,78.8,69.8,74,29.72,10.0,South,12.7,-,N/A,Rain,Light Rain,170,2013-04-11 21:28:00
4:33 PM,77.0,69.8,78,29.72,10.0,South,13.8,-,N/A,,Mostly Cloudy,170,2013-04-11 21:33:00
4:58 PM,76.8,70.3,80,29.71,10.0,SSE,16.1,23.0,0.00,,Mostly Cloudy,150,2013-04-11 21:58:00
5:58 PM,75.7,70.3,83,29.68,10.0,SSE,16.1,23.0,N/A,,Mostly Cloudy,160,2013-04-11 22:58:00
6:18 PM,75.2,69.8,83,29.67,10.0,SSE,16.1,28.8,N/A,,Mostly Cloudy,160,2013-04-11 23:18:00
6:23 PM,75.2,69.8,83,29.68,10.0,SSE,16.1,28.8,N/A,,Mostly Cloudy,160,2013-04-11 23:23:00
6:28 PM,75.2,69.8,83,29.67,10.0,SSE,15.0,25.3,N/A,,Mostly Cloudy,160,2013-04-11 23:28:00
6:58 PM,75.2,69.4,82,29.68,10.0,SSE,16.1,27.6,N/A,,Mostly Cloudy,160,2013-04-11 23:58:00
7:58 PM,74.7,69.6,84,29.67,10.0,SSE,16.1,24.2,N/A,,Mostly Cloudy,160,2013-04-12 00:58:00
8:00 PM,75.2,69.8,83,29.67,10.0,SSE,15.0,24.2,N/A,Rain,Light Rain,160,2013-04-12 01:00:00
8:05 PM,75.2,69.8,83,29.68,10.0,SSE,17.3,24.2,N/A,Rain,Light Rain,150,2013-04-12 01:05:00
8:10 PM,75.2,69.8,83,29.68,10.0,SSE,16.1,28.8,N/A,,Mostly Cloudy,160,2013-04-12 01:10:00
8:11 PM,75.2,69.8,83,29.68,10.0,SSE,15.0,28.8,N/A,Rain,Light Rain,160,2013-04-12 01:11:00
8:16 PM,75.2,69.8,83,29.67,10.0,SSE,17.3,28.8,N/A,Rain,Light Rain,160,2013-04-12 01:16:00
8:21 PM,75.2,69.8,83,29.67,10.0,SSE,18.4,25.3,N/A,Rain-Thunderstorm,Light Thunderstorms and Rain,160,2013-04-12 01:21:00
8:36 PM,73.4,69.8,88,29.69,10.0,SSE,15.0,21.9,N/A,Rain,Light Rain,160,2013-04-12 01:36:00
8:58 PM,73.6,70.2,89,29.71,8.0,South,15.0,24.2,0.02,Rain,Light Rain,170,2013-04-12 01:58:00
8:59 PM,73.4,69.8,88,29.71,7.0,South,11.5,24.2,N/A,Rain-Thunderstorm,Thunderstorms and Rain,170,2013-04-12 01:59:00
9:03 PM,73.4,69.8,88,29.71,5.0,SSE,15.0,24.2,N/A,Rain-Thunderstorm,Light Thunderstorms and Rain,160,2013-04-12 02:03:00
9:08 PM,73.4,69.8,88,29.72,2.5,South,17.3,19.6,N/A,Rain-Thunderstorm,Heavy Thunderstorms and Rain,180,2013-04-12 02:08:00
9:09 PM,73.4,69.8,88,29.72,2.5,SSW,19.6,27.6,N/A,Rain-Thunderstorm,Heavy Thunderstorms and Rain,200,2013-04-12 02:09:00
9:14 PM,73.4,69.8,88,29.73,2.0,South,16.1,27.6,N/A,Rain-Thunderstorm,Heavy Thunderstorms and Rain,190,2013-04-12 02:14:00
9:19 PM,73.4,69.8,88,29.75,3.0,South,16.1,27.6,N/A,Rain-Thunderstorm,Light Thunderstorms and Rain,180,2013-04-12 02:19:00
9:24 PM,71.6,68.0,88,29.75,1.0,South,26.5,40.3,N/A,Rain-Thunderstorm,Heavy Thunderstorms and Rain,180,2013-04-12 02:24:00
9:26 PM,69.8,66.2,88,29.77,0.8,SW,18.4,40.3,N/A,Rain-Thunderstorm,Heavy Thunderstorms and Rain,220,2013-04-12 02:26:00
9:41 PM,69.8,66.2,88,29.75,1.8,SSW,24.2,40.3,N/A,Rain-Thunderstorm,Thunderstorms and Rain,200,2013-04-12 02:41:00
9:46 PM,68.0,66.2,94,29.75,5.0,South,16.1,35.7,N/A,Rain-Thunderstorm,Thunderstorms and Rain,180,2013-04-12 02:46:00
9:58 PM,68.2,66.0,93,29.74,10.0,SSE,23.0,28.8,0.55,Rain-Thunderstorm,Light Thunderstorms and Rain,160,2013-04-12 02:58:00
10:05 PM,68.0,66.2,94,29.71,9.0,SSE,19.6,28.8,N/A,Rain,Rain,160,2013-04-12 03:05:00
10:29 PM,68.0,66.2,94,29.74,10.0,South,20.7,27.6,N/A,,Scattered Clouds,170,2013-04-12 03:29:00
10:58 PM,68.0,65.7,92,29.75,10.0,South,13.8,-,0.04,,Mostly Cloudy,180,2013-04-12 03:58:00
11:58 PM,69.1,67.3,94,29.74,10.0,South,9.2,-,N/A,,Overcast,170,2013-04-12 04:58:00